This demonstration page uses our WeatherBlox Daily Observations layout. Learn more.

36.17497, -115.13722

Hourly Observations for July 25, 2015

Temp ( °F °C ) Dew Point ( °F °C ) Humidity (%) Winds ( mph kmh ) Pressure ( in mb ) Visibility ( mi km ) Precip ( " mm )
12:53 am 00:53 Clear 86 30 33 0.6 15 15 W 6 9 29.92 1013 10 16.0934 0 0
1:53 am 01:53 Clear 82 27.8 34 1.1 18 18 ESE 5 7 29.93 1014 10 16.0934 0 0
2:53 am 02:53 Clear 82 27.8 37 2.8 20 20 ESE 5 7 29.93 1013 10 16.0934 0 0
3:53 am 03:53 Clear 78 25.6 32 0 19 19 N 6 9 29.93 1014 10 16.0934 0 0
4:53 am 04:53 Clear 77 25 32 0 19 19 NW 3 6 29.93 1014 10 16.0934 0 0
5:53 am 05:53 Sunny 73 22.8 32 0 22 22 N 7 11 29.96 1014 10 16.0934 0 0
6:53 am 06:53 Sunny 75 23.9 32 0 21 21 NNW 6 9 29.97 1015 10 16.0934 0 0
7:53 am 07:53 Sunny 81 27.2 40 4.4 23 23 NNE 6 9 29.98 1015 10 16.0934 0 0
8:53 am 08:53 Sunny 83 28.3 40 4.4 22 22 Calm 29.99 1016 10 16.0934 0 0
9:53 am 09:53 Sunny 88 31.1 39 3.9 18 18 NNE 3 6 29.97 1015 10 16.0934 0 0
10:53 am 10:53 Sunny 91 32.8 39 3.9 16 16 Calm 29.97 1015 10 16.0934 0 0
11:53 am 11:53 Sunny 93 33.9 37 2.8 14 14 SSE 9 15 29.95 1014 10 16.0934 0 0
12:53 pm 12:53 Sunny 96 35.6 36 2.2 12 12 VRB 3 6 29.92 1013 10 16.0934 0 0
1:53 pm 13:53 Sunny 96 35.6 34 1.1 11 11 VRB 5 7 29.89 1012 10 16.0934 0 0
2:53 pm 14:53 Sunny 99 37.2 35 1.7 11 11 SE 7 11 29.86 1011 10 16.0934 0 0
3:28 pm 15:28 Sunny 100 38 34 1 10 10 SSW 15 24 29.68 1005 10 16.0934 0 0
3:53 pm 15:53 Sunny 100 37.8 33 0.6 10 10 SSE 9 15 29.83 1010 10 16.0934 0 0
4:53 pm 16:53 Sunny 102 38.9 24 -4.4 6 6 S 14 22 29.8 1009 10 16.0934 0 0
5:53 pm 17:53 Sunny 102 38.9 24 -4.4 6 6 SW 12 19 29.79 1009 10 16.0934 0 0
6:53 pm 18:53 Sunny 101 38.3 23 -5 6 6 SW 12 19 29.78 1008 10 16.0934 0 0
7:53 pm 19:53 Clear 98 36.7 22 -5.6 6 6 SW 9 15 29.78 1008 10 16.0934 0 0
8:53 pm 20:53 Clear 94 34.4 27 -2.8 9 9 SSW 9 15 29.78 1009 10 16.0934 0 0
9:53 pm 21:53 Clear 92 33.3 28 -2.2 10 10 SSW 10 17 29.8 1009 10 16.0934 0 0
10:53 pm 22:53 Clear 90 32.2 29 -1.7 11 11 SW 10 17 29.8 1009 10 16.0934 0 0
11:53 pm 23:53 Clear 87 30.6 29 -1.7 12 12 S 6 9 29.8 1009 10 16.0934 0 0

Powered by AerisWeather